SCP
-0 -0 -0 -0 -0 0 0 0 0 0 0 0 0 0 0 0 0 0 0 0 0 0 0 0 0 0 0 0 0 0 0 0 0 0 0 0 0 0 0 0 0 0 0
-0 -0 -0 -0 -0 -0 -0 0 0 0 0 0 0 0 0 0 0 0 0 0 0 0 0 0 0 0 0 0 0 0 0 0 0 0 0 0 0 0 0 0 0 0 0
-0 -0 -0 -0 -0 -0 0 0 0 0 0 0 0 -0 0 0 0 0 0 0 0 0 0 0 0 0 0 0 0 0 0 0 0 0 0 0 0 0 0 0 0 0 0
-0 -0 -0 -0 -0 0 0 0 0 0 0 0 0 0 0 0 0 0 0 0 0 0 0 0 0 0 0 0 0 0 0 0 0 0 0 0 0 0 0 0 0 0 0
-0 0 0 0 -0 0 0 0 0 0 0 0 0 0 0 0 0 0 0 0 0 0 0 0 0 0 0 0 0 0 0 0 0 0 0 0 0 0 0 0 0 0 0
0 0 0 0 0 0 0 0 0 0 0 0 0 -0 0 0 0 0 0 0 0 0 0 0 0 0 0 0 0 0 0 0 0 0 0 0 0 0 0 0 0 0 0
0 0 0 0 0 0 0 0 0 0 0 0 -0 -0 0 0 0 0 0 0 0 0 0 0 0 0 0 0 0 0 0 0 0 0 0 0 0 0 0 0 0 0 0
0 0 0 0 0 0 0 0 0 0 0 0 -0 -0 0 0 0 0 0 0 0 0 0 0 0 0 0 0 0 0 0 0 0 0 0 0 0 0 0 0 0 0 0
0 0 0 0 0 0 0 0 0 0 -0 0 -0 -0 0 0 0 0 0 0 0 0 0 0 0 0 0 0 0 0 0 0 0 0 0 0 0 0 0 0 0 0 0
0 -0 0 0 0 0 0 0 0 0 0 0 0 0 0 0 0 0 0 0 0 0 0 0 0 0 0 0 0 0 0 0 0 0 0 0 0 0 0 0 0 0 0
0 -0 -0 -0 -0 -0 0 0 0 0 0 0 0 0 0 0 0 0 0 0 0 0 0 0 0 0 0 0 0 0 0 0 0 0 0 0 0 0 0 0 0 0 0
0 0 0 0 0 0 0 0 0 0 0 0 0 0 0 0 0 0 0 0 0 0 0 0 0 0 0 0 0 0 0 0 0 0 0 0 0 0 0 0 0 0 0
0 0 0 0 0 0 0 0 0 0 0 0 0 0 0 0 0 0 0 0 0 0 0 0 0 0 0 0 0 0 0 0 0 0 0 0 0 0 0 0 0 0 0
0 0 0 0 0 0 0 0 0 0 0 0 0 0 0 0 0 0 0 0 0 0 0 0 0 0 0 0 0 0 0 0 0 0 0 0 0 0 0 0 0 0 0
0 0 0 0 0 0 0 0 0 0 0 0 0 0 0 0 0 0 0 0 0 0 0 0 0 0 0 0 0 0 0 0 0 0 0 0 0 0 0 0 0 0 0
0 0 0 0 0 0 0 0 0 0 0 0 0 0 0 0 0 0 0 0 0 0 0 0 0 0 0 0 0 0 0 0 0 0 0 0 0 0 0 0 0 0 0
0 0 0 0 0 0 0 0 0 0 0 0 0 0 0 0 0 0 0 0 0 0 0 0 0 0 0 0 0 0 0 0 0 0 0 0 0 0 0 0 0 0 0
0 0 0 0 0 0 0 0 0 0 0 0 0 0 0 0 0 0 0 0 0 0 0 0 0 0 0 0 0 0 0 0 0 0 0 0 0 0 0 0 0 0 0
0 0 0 0 0 0 0 0 0 0 0 0 0 0 0 0 0 0 0 0 0 0 0 0 0 0 0 0 0 0 0 0 0 0 0 0 0 0 0 0 0 0 0
0 0 0 0 0 0 0 0 0 0 0 0 0 0 0 0 0 0 0 0 0 0 0 0 0 0 0 0 0 0 0 0 0 0 0 0 0 0 0 0 0 0 0
0 0 0 0 0 0 0 0 0 0 0 0 0 0 0 0 0 0 0 0 0 0 0 0 0 0 0 0 0 0 0 0 0 0 0 0 0 0 0 0 0 0 0
0 0 0 0 0 0 0 0 0 0 0 0 0 0 0 0 0 0 0 0 0 0 0 0 0 0 0 0 0 0 0 0 0 0 0 0 0 0 0 0 0 0 0
0 0 0 0 0 0 0 0 0 0 0 0 0 0 0 0 0 0 0 0 0 0 0 0 0 0 0 0 0 0 0 0 0 0 0 0 0 0 0 0 0 0 0
0 0 0 0 0 0 0 0 0 0 0 0 0 0 0 0 0 0 0 0 0 0 0 0 0 0 0 0 0 0 0 0 0 0 0 0 0 0 0 0 0 0 0
0 0 0 0 0 0 0 0 0 0 0 0 0 0 0 0 0 0 0 0 0 0 0 0 0 0 0 0 0 0 0 0 0 0 0 0 0 0 0 0 0 0 0
0 0 0 0 0 0 0 0 0 0 0 0 0 0 0 0 0 0 0 0 0 0 0 0 0 0 0 0 0 0 0 0 0 0 0 0 0 0 0 0 0 0 0
Wind_Speed_500mb
15 12 10 10 8 5 2 1 2 2 5 3 5 9 10 10 12 13 17 16 16 16 17 16 17 18 21 23 23 25 27 27 27 26 27 29 31 32 33 32 31 34 32
15 14 14 12 9 7 6 2 1 1 4 6 7 8 11 12 12 13 16 17 13 15 14 14 16 17 18 20 22 24 26 28 29 29 29 30 31 33 34 35 36 34 35
20 19 16 13 11 10 6 3 2 3 4 7 9 11 14 14 14 12 10 14 13 10 11 13 15 17 19 21 23 25 27 28 31 32 34 34 33 33 34 37 40 38 39
26 22 19 17 15 12 9 6 4 4 5 8 9 11 14 17 13 4 3 15 9 10 9 14 17 19 20 22 26 28 30 32 34 36 37 36 36 38 38 36 39 42 43
30 26 22 19 17 14 10 9 7 6 7 7 10 11 13 6 3 5 7 12 9 3 13 15 20 23 22 24 28 31 32 35 37 40 43 42 42 41 40 41 42 41 42
33 30 26 23 20 16 15 13 11 9 7 7 8 7 4 3 9 9 9 11 7 1 20 17 27 23 22 26 29 31 33 36 39 42 43 43 43 44 44 43 42 43 46
35 32 30 27 24 21 18 15 13 10 7 5 3 9 5 2 6 4 18 7 4 6 21 26 24 21 26 27 26 29 33 35 37 39 40 40 42 42 42 40 40 41 43
40 37 34 31 28 24 22 19 15 13 9 5 4 7 6 6 6 14 5 5 5 10 21 23 20 21 22 24 29 31 33 35 37 38 39 40 41 42 41 38 38 39 42
46 42 39 37 32 29 25 21 18 15 12 11 7 10 6 4 5 10 9 6 11 16 21 18 17 18 21 24 26 33 35 37 38 39 40 41 42 42 41 39 38 39 41
48 46 44 42 38 33 29 25 22 20 20 18 14 14 16 13 6 4 12 14 15 18 15 18 17 18 20 23 29 34 36 38 39 39 40 41 41 42 41 39 38 39 40
52 52 50 47 44 39 33 31 28 25 25 23 19 18 20 17 18 15 9 14 16 14 14 14 15 17 18 25 29 33 35 37 37 38 39 40 40 40 41 42 40 38 38
57 58 55 52 48 43 39 34 31 29 26 24 25 24 18 12 12 15 17 13 15 19 16 16 14 17 20 28 32 33 35 38 39 39 40 39 38 38 39 39 40 38 38
64 61 58 57 54 47 41 37 36 33 30 30 29 27 25 23 21 20 20 18 16 15 14 14 15 18 22 30 33 34 37 38 38 39 39 39 39 39 39 40 40 39 37
67 62 61 59 55 50 47 44 41 38 37 36 35 32 31 28 27 25 22 16 13 14 22 15 19 22 25 29 34 35 38 40 39 39 39 40 40 40 41 43 43 42 42
71 69 66 63 60 57 53 49 46 44 42 40 40 39 38 34 31 28 27 25 21 10 13 26 23 26 28 33 37 35 38 41 44 39 39 42 42 42 43 44 45 46 47
78 75 73 68 66 63 59 56 52 49 48 48 47 46 44 39 35 33 31 30 29 28 23 21 28 32 37 35 36 38 39 40 40 45 39 42 41 40 42 43 44 49 52
83 83 82 76 72 70 66 63 59 54 55 55 53 52 48 43 42 38 37 36 35 34 38 35 35 35 38 37 34 38 39 39 37 41 37 39 37 36 39 43 47 50 53
85 85 86 83 80 77 74 70 67 63 62 62 60 57 54 50 49 45 43 41 40 38 39 41 37 37 40 38 38 37 38 39 36 39 35 33 35 36 40 45 46 46 51
87 86 89 89 88 86 82 77 74 70 69 68 65 63 59 57 55 52 50 47 44 43 43 43 44 39 41 40 39 36 37 37 37 38 41 33 33 37 39 41 40 50 54
89 89 90 92 95 92 90 85 83 80 77 74 72 70 66 64 61 56 55 51 48 47 45 46 46 41 40 37 38 36 36 40 39 38 41 34 39 39 42 41 47 55 55
93 92 91 95 97 100 99 96 93 89 85 82 79 77 75 70 65 61 60 57 53 52 49 48 47 41 39 36 38 38 42 41 39 39 37 39 41 38 37 43 49 52 47
96 94 95 97 100 104 103 102 99 97 92 90 87 84 82 77 74 67 65 61 59 55 53 50 47 44 38 33 41 42 45 42 41 39 38 42 40 39 37 44 49 48 40
96 100 99 100 104 105 103 103 101 101 99 97 94 93 91 87 81 75 70 68 65 63 58 53 49 44 39 38 43 43 42 40 42 43 47 49 38 38 41 47 50 43 41
91 99 104 105 106 109 106 104 101 102 104 104 103 102 99 94 90 82 78 75 73 68 64 60 56 50 48 47 44 42 42 43 42 41 42 47 45 43 46 48 46 38 50
78 87 97 104 109 111 109 106 102 103 108 112 109 109 109 105 98 87 85 79 75 70 65 61 56 54 52 45 45 46 42 41 40 41 41 45 42 53 53 42 32 40 51
72 76 86 93 99 107 109 109 105 105 110 113 114 116 117 114 107 96 91 85 80 74 69 59 54 53 51 48 48 45 41 39 37 37 35 37 44 49 43 35 37 47 48
Wind_Direction_500mb
202 217 229 232 230 227 207 195 56 30 39 351 4 350 352 336 335 333 335 339 338 342 342 350 350 351 349 345 339 335 339 332 328 325 322 320 323 323 322 321 320 318 318
207 218 225 225 222 221 215 191 72 5 25 8 349 342 335 335 329 336 336 330 345 338 343 351 352 348 341 343 334 329 327 326 321 323 320 316 311 314 315 309 310 309 310
212 219 217 225 218 220 212 203 237 348 354 352 346 315 319 322 316 318 334 343 338 343 353 358 349 341 344 338 332 327 324 324 317 315 314 309 309 303 306 302 307 303 303
218 216 217 220 221 220 219 226 245 313 329 337 329 311 316 311 305 247 101 5 352 351 17 359 350 344 340 334 331 327 324 321 319 316 312 307 306 305 307 303 303 303 304
221 220 219 221 225 227 234 246 264 283 305 317 318 316 310 312 149 181 289 334 335 32 358 1 352 337 333 330 329 326 321 319 318 316 314 313 310 306 302 300 300 299 295
224 223 223 223 225 229 236 248 260 272 296 312 318 321 306 237 263 189 351 308 320 252 355 344 340 340 335 331 327 324 322 322 321 319 317 316 314 310 306 303 301 298 299
226 226 227 226 227 230 239 245 258 274 292 313 350 339 324 310 169 246 325 318 225 299 349 342 340 336 331 335 331 328 330 328 325 322 319 317 314 311 309 307 304 299 295
228 228 228 228 230 233 239 246 255 261 257 253 203 154 201 297 262 306 303 315 249 297 329 329 330 327 328 331 331 333 332 330 326 323 320 316 315 315 313 312 309 306 301
228 228 229 230 231 234 239 244 250 253 254 255 222 167 193 205 256 279 287 282 273 289 309 310 318 320 327 326 329 334 338 334 329 325 324 322 321 318 317 316 314 310 305
230 231 230 231 233 237 238 245 248 251 247 243 237 226 218 214 173 211 302 273 264 281 290 313 315 316 323 328 335 342 341 336 332 329 327 325 324 323 321 317 315 313 309
232 232 231 231 232 235 237 240 242 243 243 238 231 225 221 222 225 217 218 279 304 303 298 299 294 305 313 330 338 340 338 334 332 331 330 327 325 323 321 319 316 313 311
231 232 231 231 232 232 234 239 243 244 243 241 241 241 236 236 236 218 219 243 269 261 274 282 286 305 313 331 334 340 338 337 335 334 332 327 326 325 324 321 316 314 312
233 231 232 231 233 233 234 237 242 245 244 243 241 242 242 242 235 245 233 240 248 272 278 282 279 300 310 325 330 335 337 337 331 333 329 326 327 328 326 324 322 318 315
238 236 233 232 232 232 235 237 240 241 240 239 239 239 242 240 243 245 249 244 269 265 291 286 289 297 304 317 322 328 334 336 334 332 329 325 326 326 323 323 321 317 313
239 239 235 232 232 234 236 237 238 239 238 238 237 237 238 240 242 245 248 254 256 247 254 262 278 296 298 312 315 324 330 336 332 328 328 323 323 324 322 322 320 315 312
237 239 238 234 233 235 237 239 237 236 237 236 236 236 236 236 240 241 245 251 254 252 251 255 282 295 300 305 311 320 329 329 328 328 332 325 325 324 320 320 319 318 317
240 238 240 238 236 237 238 240 240 237 238 237 235 235 236 235 239 240 242 247 251 255 263 267 273 280 294 303 304 310 319 325 326 323 328 324 323 323 321 319 318 317 315
243 242 241 240 239 238 240 240 241 240 239 237 236 235 236 236 237 240 242 244 248 253 260 273 276 277 284 294 300 306 314 319 322 319 324 318 317 320 320 318 316 316 318
243 241 241 242 241 241 241 241 242 243 241 241 239 239 238 238 239 240 244 245 248 251 258 265 272 275 283 290 294 303 310 312 317 318 318 316 316 322 318 316 315 315 322
244 243 242 243 243 243 243 243 243 242 243 241 241 241 240 240 241 242 244 246 249 251 255 261 268 273 276 283 288 298 302 308 310 314 311 315 320 321 319 318 321 324 326
246 245 244 243 243 242 242 242 242 242 242 243 241 242 242 242 243 243 245 247 247 250 254 259 264 267 271 275 282 289 296 301 306 309 308 311 316 319 318 321 320 320 318
246 246 245 245 245 244 244 243 243 243 243 243 244 243 244 243 243 244 245 247 249 250 253 255 259 261 268 270 270 283 289 300 304 308 306 308 314 319 318 320 318 318 315
249 248 248 246 248 249 248 246 245 245 245 244 245 246 245 244 243 243 244 247 247 249 251 253 253 256 260 261 271 280 291 294 300 308 307 309 316 315 320 321 320 321 322
255 253 251 250 249 250 250 249 247 245 246 246 245 246 247 247 245 244 244 244 246 247 249 249 251 253 255 260 270 277 284 291 296 298 303 304 315 313 322 323 319 319 327
264 260 257 255 252 252 252 252 249 246 244 245 246 246 246 246 247 244 245 245 245 246 247 246 245 250 256 262 267 275 278 284 293 301 303 302 310 313 321 324 321 316 322
270 266 262 260 259 258 257 256 253 250 248 245 246 247 247 248 248 246 244 244 243 245 244 248 247 250 256 260 264 269 272 278 285 295 293 297 305 316 320 318 312 315 323
Wind_Speed_850mb
15 12 10 10 8 5 2 1 2 2 5 3 5 9 10 10 12 13 17 16 16 16 17 16 17 18 21 23 23 25 27 27 27 26 27 29 31 32 33 32 31 34 32
15 14 14 12 9 7 6 2 1 1 4 6 7 8 11 12 12 13 16 17 13 15 14 14 16 17 18 20 22 24 26 28 29 29 29 30 31 33 34 35 36 34 35
20 19 16 13 11 10 6 3 2 3 4 7 9 11 14 14 14 12 10 14 13 10 11 13 15 17 19 21 23 25 27 28 31 32 34 34 33 33 34 37 40 38 39
26 22 19 17 15 12 9 6 4 4 5 8 9 11 14 17 13 4 3 15 9 10 9 14 17 19 20 22 26 28 30 32 34 36 37 36 36 38 38 36 39 42 43
30 26 22 19 17 14 10 9 7 6 7 7 10 11 13 6 3 5 7 12 9 3 13 15 20 23 22 24 28 31 32 35 37 40 43 42 42 41 40 41 42 41 42
33 30 26 23 20 16 15 13 11 9 7 7 8 7 4 3 9 9 9 11 7 1 20 17 27 23 22 26 29 31 33 36 39 42 43 43 43 44 44 43 42 43 46
35 32 30 27 24 21 18 15 13 10 7 5 3 9 5 2 6 4 18 7 4 6 21 26 24 21 26 27 26 29 33 35 37 39 40 40 42 42 42 40 40 41 43
40 37 34 31 28 24 22 19 15 13 9 5 4 7 6 6 6 14 5 5 5 10 21 23 20 21 22 24 29 31 33 35 37 38 39 40 41 42 41 38 38 39 42
46 42 39 37 32 29 25 21 18 15 12 11 7 10 6 4 5 10 9 6 11 16 21 18 17 18 21 24 26 33 35 37 38 39 40 41 42 42 41 39 38 39 41
48 46 44 42 38 33 29 25 22 20 20 18 14 14 16 13 6 4 12 14 15 18 15 18 17 18 20 23 29 34 36 38 39 39 40 41 41 42 41 39 38 39 40
52 52 50 47 44 39 33 31 28 25 25 23 19 18 20 17 18 15 9 14 16 14 14 14 15 17 18 25 29 33 35 37 37 38 39 40 40 40 41 42 40 38 38
57 58 55 52 48 43 39 34 31 29 26 24 25 24 18 12 12 15 17 13 15 19 16 16 14 17 20 28 32 33 35 38 39 39 40 39 38 38 39 39 40 38 38
64 61 58 57 54 47 41 37 36 33 30 30 29 27 25 23 21 20 20 18 16 15 14 14 15 18 22 30 33 34 37 38 38 39 39 39 39 39 39 40 40 39 37
67 62 61 59 55 50 47 44 41 38 37 36 35 32 31 28 27 25 22 16 13 14 22 15 19 22 25 29 34 35 38 40 39 39 39 40 40 40 41 43 43 42 42
71 69 66 63 60 57 53 49 46 44 42 40 40 39 38 34 31 28 27 25 21 10 13 26 23 26 28 33 37 35 38 41 44 39 39 42 42 42 43 44 45 46 47
78 75 73 68 66 63 59 56 52 49 48 48 47 46 44 39 35 33 31 30 29 28 23 21 28 32 37 35 36 38 39 40 40 45 39 42 41 40 42 43 44 49 52
83 83 82 76 72 70 66 63 59 54 55 55 53 52 48 43 42 38 37 36 35 34 38 35 35 35 38 37 34 38 39 39 37 41 37 39 37 36 39 43 47 50 53
85 85 86 83 80 77 74 70 67 63 62 62 60 57 54 50 49 45 43 41 40 38 39 41 37 37 40 38 38 37 38 39 36 39 35 33 35 36 40 45 46 46 51
87 86 89 89 88 86 82 77 74 70 69 68 65 63 59 57 55 52 50 47 44 43 43 43 44 39 41 40 39 36 37 37 37 38 41 33 33 37 39 41 40 50 54
89 89 90 92 95 92 90 85 83 80 77 74 72 70 66 64 61 56 55 51 48 47 45 46 46 41 40 37 38 36 36 40 39 38 41 34 39 39 42 41 47 55 55
93 92 91 95 97 100 99 96 93 89 85 82 79 77 75 70 65 61 60 57 53 52 49 48 47 41 39 36 38 38 42 41 39 39 37 39 41 38 37 43 49 52 47
96 94 95 97 100 104 103 102 99 97 92 90 87 84 82 77 74 67 65 61 59 55 53 50 47 44 38 33 41 42 45 42 41 39 38 42 40 39 37 44 49 48 40
96 100 99 100 104 105 103 103 101 101 99 97 94 93 91 87 81 75 70 68 65 63 58 53 49 44 39 38 43 43 42 40 42 43 47 49 38 38 41 47 50 43 41
91 99 104 105 106 109 106 104 101 102 104 104 103 102 99 94 90 82 78 75 73 68 64 60 56 50 48 47 44 42 42 43 42 41 42 47 45 43 46 48 46 38 50
78 87 97 104 109 111 109 106 102 103 108 112 109 109 109 105 98 87 85 79 75 70 65 61 56 54 52 45 45 46 42 41 40 41 41 45 42 53 53 42 32 40 51
72 76 86 93 99 107 109 109 105 105 110 113 114 116 117 114 107 96 91 85 80 74 69 59 54 53 51 48 48 45 41 39 37 37 35 37 44 49 43 35 37 47 48
Wind_Direction_850mb
202 217 229 232 230 227 207 195 56 30 39 351 4 350 352 336 335 333 335 339 338 342 342 350 350 351 349 345 339 335 339 332 328 325 322 320 323 323 322 321 320 318 318
207 218 225 225 222 221 215 191 72 5 25 8 349 342 335 335 329 336 336 330 345 338 343 351 352 348 341 343 334 329 327 326 321 323 320 316 311 314 315 309 310 309 310
212 219 217 225 218 220 212 203 237 348 354 352 346 315 319 322 316 318 334 343 338 343 353 358 349 341 344 338 332 327 324 324 317 315 314 309 309 303 306 302 307 303 303
218 216 217 220 221 220 219 226 245 313 329 337 329 311 316 311 305 247 101 5 352 351 17 359 350 344 340 334 331 327 324 321 319 316 312 307 306 305 307 303 303 303 304
221 220 219 221 225 227 234 246 264 283 305 317 318 316 310 312 149 181 289 334 335 32 358 1 352 337 333 330 329 326 321 319 318 316 314 313 310 306 302 300 300 299 295
224 223 223 223 225 229 236 248 260 272 296 312 318 321 306 237 263 189 351 308 320 252 355 344 340 340 335 331 327 324 322 322 321 319 317 316 314 310 306 303 301 298 299
226 226 227 226 227 230 239 245 258 274 292 313 350 339 324 310 169 246 325 318 225 299 349 342 340 336 331 335 331 328 330 328 325 322 319 317 314 311 309 307 304 299 295
228 228 228 228 230 233 239 246 255 261 257 253 203 154 201 297 262 306 303 315 249 297 329 329 330 327 328 331 331 333 332 330 326 323 320 316 315 315 313 312 309 306 301
228 228 229 230 231 234 239 244 250 253 254 255 222 167 193 205 256 279 287 282 273 289 309 310 318 320 327 326 329 334 338 334 329 325 324 322 321 318 317 316 314 310 305
230 231 230 231 233 237 238 245 248 251 247 243 237 226 218 214 173 211 302 273 264 281 290 313 315 316 323 328 335 342 341 336 332 329 327 325 324 323 321 317 315 313 309
232 232 231 231 232 235 237 240 242 243 243 238 231 225 221 222 225 217 218 279 304 303 298 299 294 305 313 330 338 340 338 334 332 331 330 327 325 323 321 319 316 313 311
231 232 231 231 232 232 234 239 243 244 243 241 241 241 236 236 236 218 219 243 269 261 274 282 286 305 313 331 334 340 338 337 335 334 332 327 326 325 324 321 316 314 312
233 231 232 231 233 233 234 237 242 245 244 243 241 242 242 242 235 245 233 240 248 272 278 282 279 300 310 325 330 335 337 337 331 333 329 326 327 328 326 324 322 318 315
238 236 233 232 232 232 235 237 240 241 240 239 239 239 242 240 243 245 249 244 269 265 291 286 289 297 304 317 322 328 334 336 334 332 329 325 326 326 323 323 321 317 313
239 239 235 232 232 234 236 237 238 239 238 238 237 237 238 240 242 245 248 254 256 247 254 262 278 296 298 312 315 324 330 336 332 328 328 323 323 324 322 322 320 315 312
237 239 238 234 233 235 237 239 237 236 237 236 236 236 236 236 240 241 245 251 254 252 251 255 282 295 300 305 311 320 329 329 328 328 332 325 325 324 320 320 319 318 317
240 238 240 238 236 237 238 240 240 237 238 237 235 235 236 235 239 240 242 247 251 255 263 267 273 280 294 303 304 310 319 325 326 323 328 324 323 323 321 319 318 317 315
243 242 241 240 239 238 240 240 241 240 239 237 236 235 236 236 237 240 242 244 248 253 260 273 276 277 284 294 300 306 314 319 322 319 324 318 317 320 320 318 316 316 318
243 241 241 242 241 241 241 241 242 243 241 241 239 239 238 238 239 240 244 245 248 251 258 265 272 275 283 290 294 303 310 312 317 318 318 316 316 322 318 316 315 315 322
244 243 242 243 243 243 243 243 243 242 243 241 241 241 240 240 241 242 244 246 249 251 255 261 268 273 276 283 288 298 302 308 310 314 311 315 320 321 319 318 321 324 326
246 245 244 243 243 242 242 242 242 242 242 243 241 242 242 242 243 243 245 247 247 250 254 259 264 267 271 275 282 289 296 301 306 309 308 311 316 319 318 321 320 320 318
246 246 245 245 245 244 244 243 243 243 243 243 244 243 244 243 243 244 245 247 249 250 253 255 259 261 268 270 270 283 289 300 304 308 306 308 314 319 318 320 318 318 315
249 248 248 246 248 249 248 246 245 245 245 244 245 246 245 244 243 243 244 247 247 249 251 253 253 256 260 261 271 280 291 294 300 308 307 309 316 315 320 321 320 321 322
255 253 251 250 249 250 250 249 247 245 246 246 245 246 247 247 245 244 244 244 246 247 249 249 251 253 255 260 270 277 284 291 296 298 303 304 315 313 322 323 319 319 327
264 260 257 255 252 252 252 252 249 246 244 245 246 246 246 246 247 244 245 245 245 246 247 246 245 250 256 262 267 275 278 284 293 301 303 302 310 313 321 324 321 316 322
270 266 262 260 259 258 257 256 253 250 248 245 246 247 247 248 248 246 244 244 243 245 244 248 247 250 256 260 264 269 272 278 285 295 293 297 305 316 320 318 312 315 323